Location: Recife
(8.0585°S, 34.8848°W)
Time: 21:04:32
(UTC-03:00)

A-11 Canister half - Pass Details

Date: 23 April 2026
Orbit: 1523 x 1684 km, 47.3° (Epoch: 16 May)

Event Time Altitude Azimuth Distance (km) Brightness Sun altitude
Rises 18:09:16 0° 217° (SW) 4,696 11.9 -14.2°
Reaches altitude 10° 18:12:18 10° 214° (SW) 3,725 11.3 -15.0°
Maximum altitude 18:21:43 73° 130° (SE) 1,638 8.9 -17.3°
Drops below altitude 10° 18:31:25 10° 47° (NE) 3,831 10.7 -19.6°
Sets 18:34:34 0° 45° (NE) 4,836 11.3 -20.4°
